Wind_Speed
25 21 20 18 17 19 20 19 19 18 19 17 18 20 20 20 19 19 18 18 18 18 18 17 16 16 15 15 15 14 15 15 16 17 17 17 17 18 18 19 19 19 19 19
26 23 22 21 19 19 20 20 21 21 20 20 22 23 22 21 21 20 20 19 19 19 19 18 18 17 17 17 16 17 17 17 17 18 18 18 19 19 20 20 20 20 20 20
27 24 24 24 21 21 22 24 24 24 23 23 24 25 25 24 23 22 21 21 21 21 21 20 20 19 18 18 18 18 18 19 19 19 19 20 20 21 21 21 21 21 21 21
28 26 27 25 24 23 23 25 25 26 26 24 25 26 26 25 25 24 23 23 23 22 22 22 21 21 21 20 20 20 20 20 21 21 21 21 21 22 22 22 22 23 23 22
29 27 27 26 25 23 24 25 25 25 26 26 26 28 27 27 26 26 24 24 24 23 23 23 23 22 22 22 22 22 22 22 22 22 22 21 22 22 23 23 23 24 23 24
29 28 27 27 26 25 25 26 27 27 28 28 27 27 28 28 27 27 27 26 26 25 24 24 24 24 23 23 23 22 22 23 22 22 23 23 23 23 24 24 24 25 24 25
30 29 29 28 27 26 27 28 28 29 29 28 29 28 29 28 28 28 27 27 27 27 26 26 25 25 25 24 24 24 23 23 22 22 23 23 23 24 25 25 25 25 25 25
32 31 31 30 28 28 29 29 29 29 29 29 29 29 29 29 29 29 27 27 27 27 27 28 28 28 27 26 25 24 24 24 24 24 25 25 24 25 26 26 26 26 27 27
32 32 32 32 31 30 30 32 32 31 30 29 30 30 30 30 30 30 29 29 28 28 29 29 29 28 28 26 26 26 26 26 26 26 27 26 26 27 27 27 28 28 28 28
34 34 35 34 33 33 33 33 33 32 32 31 31 30 31 31 31 31 31 31 30 30 30 29 29 28 27 28 28 27 27 28 28 28 29 29 29 29 29 29 29 29 29 29
35 34 34 35 35 35 34 33 33 33 33 32 32 32 31 31 31 31 31 31 31 30 30 30 29 28 28 28 28 29 29 30 30 31 31 31 30 30 30 30 31 31 31 31
35 35 36 36 36 36 36 35 34 34 34 33 32 32 33 32 31 31 31 31 30 30 30 29 29 29 29 30 30 30 30 31 32 32 32 31 30 30 30 31 32 32 32 32
37 37 36 36 36 37 37 36 36 36 35 34 34 34 33 33 32 31 31 31 31 30 30 30 30 30 30 30 31 31 31 31 32 33 32 31 31 31 31 31 32 32 32 32
36 36 36 36 36 37 37 37 37 37 36 36 35 35 34 33 32 32 32 32 31 30 31 31 31 31 30 31 32 32 32 32 33 33 33 32 32 31 31 31 31 31 31 32
35 36 36 36 36 36 37 37 37 37 37 36 35 34 33 33 33 33 33 33 33 32 32 32 32 32 32 33 33 33 34 34 33 33 33 33 32 32 31 31 31 31 32 32
34 34 34 35 36 35 36 35 35 36 36 35 34 33 33 33 33 33 33 33 33 33 33 33 33 33 34 34 34 35 35 34 34 34 34 33 32 32 31 31 31 32 32 32
32 32 32 33 34 34 34 34 34 34 34 34 34 34 34 33 33 34 34 34 34 34 33 33 33 34 35 35 35 35 35 35 35 35 34 33 33 32 31 31 31 31 31 31
30 30 31 31 32 33 33 33 33 33 33 33 33 34 34 34 33 34 34 34 35 35 35 35 35 35 35 36 35 35 35 35 34 33 33 32 33 32 32 31 30 30 30 29
28 28 29 30 30 31 31 31 32 33 33 33 33 34 34 33 33 33 33 34 35 35 35 35 35 36 36 36 36 35 34 34 33 32 31 30 31 32 31 30 29 29 29 28
26 27 28 29 29 30 31 31 32 33 33 33 33 33 33 34 33 33 33 34 34 34 34 35 35 35 36 36 35 35 33 32 32 31 30 29 30 29 28 28 28 28 27 27
25 26 27 27 28 29 29 30 30 31 32 33 32 32 32 33 33 33 32 33 33 33 33 33 33 33 33 33 33 33 32 31 30 29 28 28 28 27 27 27 27 27 27 28
24 25 25 26 27 28 28 28 28 28 28 30 30 31 31 31 32 31 31 31 31 31 32 31 31 31 31 31 31 30 29 29 28 27 27 27 27 27 27 27 27 28 27 28
22 23 24 24 24 25 26 27 27 28 28 29 29 30 30 30 30 30 30 29 30 30 30 30 30 29 29 29 28 28 27 27 27 26 27 27 28 27 25 26 27 26 25 26
21 21 22 22 23 22 23 24 25 27 27 28 28 28 29 29 29 29 29 28 28 28 28 27 26 26 27 27 27 26 27 27 26 26 27 28 27 26 25 25 25 25 25 25
19 19 20 20 21 22 23 24 25 26 26 27 26 26 27 27 27 27 27 26 26 26 26 25 24 24 24 25 25 25 25 25 25 26 26 26 25 25 24 24 25 24 25 25
17 17 17 18 19 20 21 22 23 23 23 24 24 24 23 23 24 25 25 24 25 24 24 24 24 24 24 24 24 24 23 23 24 25 25 24 23 23 24 24 24 24 24 25
14 15 16 16 16 17 18 19 19 20 21 20 21 22 22 22 22 22 22 22 23 22 22 22 23 23 23 23 22 23 23 23 23 23 23 23 23 22 23 23 24 24 25 25
Wind_Direction
227 223 231 237 239 238 236 239 244 248 249 246 252 259 262 266 266 266 269 273 276 280 282 284 284 284 287 288 289 291 293 293 293 292 293 296 299 300 302 305 308 310 311 311
232 231 234 233 235 241 243 242 243 245 250 251 250 255 262 265 266 267 270 272 273 276 279 281 283 283 284 283 284 287 289 291 290 291 293 295 296 297 299 302 304 305 307 307
239 237 240 236 236 239 244 243 243 245 246 249 254 258 263 266 267 267 268 270 273 273 274 276 278 280 282 281 282 284 285 288 288 288 290 292 293 296 298 301 302 303 304 304
239 239 242 240 240 240 240 242 243 245 245 249 256 260 264 266 266 268 268 270 271 272 273 272 273 275 278 279 281 282 284 286 288 287 287 289 291 295 297 299 300 301 301 302
239 241 244 242 242 240 240 242 245 245 248 251 254 259 261 263 265 267 267 269 271 272 271 270 271 273 274 277 279 281 282 284 285 287 286 286 290 294 296 297 298 300 299 301
240 241 242 241 241 241 244 246 248 249 251 253 255 256 259 261 264 266 265 267 271 272 271 270 270 271 272 275 277 279 282 284 286 286 286 286 288 291 294 296 296 297 298 299
241 241 244 243 241 241 245 246 248 251 253 254 257 258 261 262 263 265 266 266 268 270 269 269 269 271 273 276 278 280 281 284 286 288 288 287 288 290 293 295 296 296 297 298
241 240 242 244 244 242 244 247 249 251 253 254 256 258 260 261 261 264 267 267 268 268 269 269 269 270 272 274 276 277 279 282 285 286 287 289 290 290 291 293 295 295 296 297
243 242 242 245 247 247 247 249 250 252 255 258 259 258 260 261 260 262 266 267 268 269 270 270 270 270 271 272 273 274 277 280 283 285 285 287 288 288 289 291 293 294 297 298
241 242 242 244 247 249 250 251 252 253 256 259 260 260 261 262 262 262 265 266 267 268 269 270 269 270 270 272 273 274 277 280 282 284 285 286 287 288 289 290 291 292 295 297
241 242 242 243 245 247 249 251 253 255 257 259 260 260 261 262 263 263 264 265 266 268 268 270 270 270 271 271 272 275 277 279 281 282 284 285 285 285 287 288 290 292 293 295
244 243 244 246 248 249 251 253 254 256 257 259 260 261 261 263 264 263 264 263 263 266 268 270 270 270 270 271 272 273 275 277 279 281 284 283 283 284 286 288 290 291 293 295
247 248 249 250 250 252 254 254 255 256 257 259 259 260 261 262 263 263 263 262 263 265 267 268 269 270 271 272 272 273 275 276 277 279 281 281 283 285 286 287 289 291 292 295
249 250 249 249 251 252 253 254 255 256 257 258 259 260 261 261 262 262 262 263 262 263 265 266 268 269 271 272 273 274 276 276 278 279 280 280 282 284 286 288 290 291 292 294
248 250 250 250 251 252 254 255 256 257 258 258 258 258 259 260 261 262 262 262 262 262 264 266 268 269 271 271 272 274 276 276 277 278 279 280 282 284 286 288 290 291 292 293
249 250 251 251 252 253 254 255 256 257 257 257 257 258 258 260 260 261 262 262 264 263 264 266 267 268 270 272 272 274 275 275 276 277 278 280 282 283 285 287 288 289 290 291
250 251 251 251 252 253 254 255 257 258 258 258 258 258 259 260 261 261 262 263 263 265 265 266 267 268 270 272 274 274 274 274 274 276 277 278 280 281 283 284 286 288 289 291
252 252 251 251 251 252 253 255 256 256 258 259 258 258 258 260 261 262 262 263 264 266 266 266 267 268 271 272 276 277 276 277 276 277 277 279 279 279 280 282 285 287 289 289
250 251 251 252 252 253 254 255 256 256 257 259 260 259 259 260 261 261 262 264 265 266 266 267 269 270 271 273 275 277 275 275 275 274 275 277 278 279 280 281 283 284 286 288
250 251 252 254 255 255 256 258 258 256 257 258 260 261 260 261 261 262 263 263 265 266 267 269 270 270 271 272 273 274 273 272 272 272 273 276 276 276 278 281 283 285 287 288
251 252 253 255 256 255 257 258 257 256 257 257 259 259 259 260 261 262 262 263 265 266 268 270 271 271 271 271 271 272 272 272 271 271 273 274 274 275 276 278 281 284 286 288
252 252 254 255 255 256 256 256 257 257 257 259 259 258 259 260 261 262 263 264 265 267 269 270 270 270 271 271 270 271 271 270 272 273 273 274 274 275 276 278 282 282 284 286
254 253 254 256 257 256 255 255 255 256 257 258 259 260 261 263 264 264 265 265 267 268 269 269 270 269 270 271 271 270 269 269 271 272 274 275 276 277 278 281 282 283 285 285
258 256 255 258 259 260 260 259 258 259 260 260 259 260 261 263 263 264 264 265 267 268 269 269 269 269 271 271 270 269 269 269 269 271 275 276 277 277 279 281 283 285 286 288
262 262 260 259 259 261 261 261 262 263 263 262 260 261 262 262 263 265 266 265 265 266 268 268 268 267 268 268 269 270 270 268 267 270 274 275 274 276 278 282 284 286 288 289
262 263 264 264 264 266 266 266 265 264 265 265 262 262 264 264 264 264 263 263 263 265 266 266 266 267 270 271 270 269 268 267 268 271 274 276 276 275 276 278 281 284 288 289
264 265 267 268 269 269 269 268 267 266 266 265 265 263 262 263 264 264 264 264 264 263 265 266 268 270 272 273 273 272 271 270 271 273 274 274 275 277 279 282 284 285 286 288
Height
5870 5873 5876 5879 5881 5883 5885 5887 5888 5889 5890 5891 5890 5889 5889 5890 5891 5891 5892 5892 5892 5892 5892 5892 5891 5891 5890 5890 5889 5889 5888 5887 5887 5886 5885 5884 5883 5882 5880 5879 5877 5875 5873 5871
5864 5868 5870 5873 5876 5878 5880 5882 5883 5883 5884 5885 5884 5884 5884 5885 5886 5887 5887 5888 5888 5888 5888 5887 5887 5887 5886 5886 5886 5885 5884 5883 5883 5882 5881 5880 5879 5878 5876 5874 5872 5870 5868 5866
5858 5862 5864 5867 5870 5872 5875 5876 5878 5878 5879 5879 5880 5880 5880 5881 5881 5882 5882 5883 5883 5883 5883 5883 5883 5883 5882 5882 5881 5881 5880 5879 5878 5877 5877 5876 5874 5873 5871 5870 5868 5866 5864 5861
5852 5855 5857 5862 5864 5866 5868 5869 5870 5871 5871 5873 5874 5874 5875 5876 5876 5877 5877 5877 5877 5877 5877 5877 5877 5877 5877 5877 5876 5876 5875 5874 5873 5873 5871 5870 5869 5868 5866 5864 5863 5861 5859 5856
5845 5848 5851 5854 5856 5859 5861 5862 5863 5864 5865 5867 5868 5867 5868 5869 5870 5871 5871 5871 5871 5871 5871 5871 5872 5872 5872 5871 5871 5870 5869 5869 5868 5867 5866 5865 5864 5862 5861 5859 5857 5855 5853 5851
5839 5842 5845 5847 5849 5852 5855 5855 5856 5858 5858 5860 5861 5861 5861 5863 5863 5864 5864 5865 5865 5865 5865 5865 5865 5865 5866 5866 5865 5865 5864 5863 5862 5861 5860 5859 5858 5856 5855 5853 5851 5849 5848 5845
5832 5835 5836 5839 5841 5845 5848 5848 5849 5850 5852 5853 5854 5854 5855 5856 5857 5857 5857 5858 5858 5858 5858 5859 5859 5859 5860 5859 5859 5859 5858 5857 5856 5855 5854 5852 5851 5850 5848 5847 5845 5843 5842 5840
5824 5827 5831 5831 5834 5836 5837 5838 5840 5842 5844 5846 5846 5847 5848 5849 5850 5850 5850 5850 5851 5851 5852 5852 5852 5852 5852 5853 5852 5852 5851 5850 5850 5848 5847 5846 5845 5843 5842 5840 5839 5837 5835 5833
5816 5820 5821 5822 5825 5827 5830 5831 5833 5835 5836 5838 5838 5839 5840 5841 5842 5842 5843 5843 5844 5844 5844 5845 5844 5844 5845 5845 5845 5844 5844 5844 5843 5842 5840 5839 5838 5836 5834 5833 5831 5829 5827 5825
5806 5809 5811 5814 5817 5819 5821 5823 5825 5827 5829 5830 5831 5832 5833 5834 5834 5835 5835 5836 5836 5836 5837 5837 5837 5836 5836 5837 5837 5837 5837 5836 5835 5834 5832 5831 5830 5828 5827 5825 5823 5822 5820 5818
5797 5801 5802 5805 5808 5811 5813 5815 5817 5818 5820 5821 5823 5824 5824 5825 5826 5827 5827 5828 5828 5828 5829 5829 5829 5829 5829 5829 5829 5829 5828 5828 5827 5825 5824 5823 5822 5820 5818 5817 5815 5813 5811 5809
5788 5792 5794 5797 5799 5802 5804 5806 5808 5810 5811 5813 5814 5815 5816 5816 5817 5818 5819 5819 5820 5820 5820 5821 5821 5821 5821 5821 5821 5821 5820 5819 5818 5817 5816 5814 5813 5811 5810 5808 5807 5805 5802 5801
5779 5782 5785 5788 5791 5793 5795 5797 5799 5801 5802 5804 5805 5806 5806 5808 5809 5809 5810 5811 5811 5811 5812 5812 5813 5813 5812 5812 5812 5812 5812 5811 5809 5808 5807 5806 5804 5803 5801 5800 5798 5796 5794 5792
5771 5774 5776 5779 5781 5783 5785 5787 5789 5791 5792 5794 5795 5796 5798 5799 5800 5800 5801 5802 5803 5803 5803 5804 5804 5804 5804 5804 5804 5804 5803 5802 5801 5800 5798 5797 5795 5793 5792 5790 5789 5788 5786 5784
5761 5764 5767 5769 5771 5773 5775 5777 5779 5781 5782 5784 5785 5787 5788 5789 5790 5791 5792 5793 5794 5794 5794 5795 5795 5795 5795 5795 5795 5795 5794 5793 5792 5791 5789 5788 5786 5785 5783 5782 5780 5779 5777 5775
5752 5755 5757 5760 5762 5764 5766 5767 5769 5771 5772 5773 5775 5777 5778 5780 5781 5782 5783 5784 5784 5785 5786 5786 5786 5786 5786 5785 5785 5785 5784 5783 5782 5781 5780 5779 5777 5776 5774 5773 5771 5770 5768 5767
5743 5746 5748 5750 5752 5754 5756 5758 5759 5761 5762 5764 5766 5767 5768 5770 5771 5772 5773 5774 5775 5776 5776 5776 5777 5777 5776 5776 5775 5775 5774 5773 5772 5772 5770 5769 5768 5767 5765 5764 5763 5761 5760 5758
5735 5737 5739 5741 5743 5745 5747 5748 5749 5751 5753 5754 5755 5756 5758 5759 5761 5762 5763 5764 5765 5766 5766 5766 5766 5767 5766 5766 5765 5765 5764 5763 5763 5762 5761 5760 5759 5758 5756 5755 5754 5753 5751 5749
5727 5728 5730 5732 5734 5735 5737 5739 5740 5741 5743 5743 5744 5745 5747 5749 5751 5752 5753 5753 5755 5756 5756 5756 5756 5756 5756 5756 5755 5754 5754 5753 5753 5752 5751 5750 5749 5748 5747 5746 5745 5744 5743 5741
5719 5721 5722 5724 5725 5726 5728 5729 5730 5731 5732 5733 5734 5735 5737 5739 5740 5742 5743 5743 5745 5745 5746 5746 5746 5746 5746 5745 5745 5744 5744 5743 5743 5742 5742 5741 5740 5739 5739 5738 5737 5736 5734 5733
5712 5713 5714 5715 5716 5717 5718 5719 5720 5721 5722 5723 5724 5725 5727 5729 5730 5732 5733 5734 5735 5736 5736 5736 5735 5735 5735 5735 5735 5734 5734 5734 5733 5733 5733 5732 5731 5731 5730 5730 5729 5728 5727 5725
5705 5706 5706 5707 5708 5709 5710 5711 5711 5712 5713 5714 5715 5716 5718 5719 5721 5722 5724 5725 5726 5726 5726 5726 5726 5726 5726 5725 5725 5725 5725 5725 5725 5725 5724 5724 5724 5723 5723 5722 5721 5720 5719 5718
5698 5698 5699 5700 5700 5701 5701 5702 5703 5704 5705 5706 5707 5708 5709 5711 5712 5713 5715 5716 5716 5716 5717 5717 5717 5717 5717 5716 5716 5717 5717 5717 5717 5717 5717 5716 5716 5715 5715 5714 5713 5712 5711 5710
5691 5692 5692 5693 5694 5694 5694 5694 5695 5696 5696 5697 5698 5700 5701 5702 5703 5705 5706 5707 5707 5708 5708 5708 5708 5708 5708 5708 5709 5709 5709 5709 5709 5709 5709 5708 5708 5707 5706 5706 5705 5704 5703 5703
5685 5685 5686 5686 5687 5687 5687 5688 5688 5688 5689 5690 5691 5692 5693 5694 5695 5696 5697 5698 5699 5699 5700 5700 5700 5700 5700 5701 5701 5701 5701 5701 5701 5701 5701 5701 5700 5700 5699 5698 5698 5697 5696 5695
5679 5679 5679 5679 5679 5680 5680 5680 5681 5681 5682 5683 5684 5685 5685 5686 5687 5688 5689 5690 5691 5692 5692 5693 5693 5693 5693 5693 5694 5694 5694 5694 5694 5694 5694 5694 5693 5693 5693 5692 5691 5690 5689 5688
5674 5674 5674 5674 5674 5673 5673 5674 5674 5675 5675 5676 5677 5678 5679 5680 5681 5682 5682 5683 5684 5684 5685 5686 5686 5686 5687 5687 5687 5688 5688 5688 5688 5687 5687 5687 5686 5686 5685 5685 5684 5683 5682 5680